OBJECT E, 64052

Orbit data source: Space-Track

You're viewing an Uncataloged Satellite

Recently launched and/or uncataloged satellites may have evolving metadata. Metadata may include but not limited to: Owner, Maufacturer, Bus, Motor, and Mission.

OBJECT E, 64052 is a satellite owned by Youdian Daxue (CN) in SSO that was launched on Sat, 17 May 2025 UTC via a ZHUQUE-2E launch vehicle from the Jiuquan Satellite Launch Center, China (JSC). Unknown objects in Earth's orbit typically refer to objects detected orbiting the Earth but have not yet been identified or cataloged. These objects could be anything from previously untracked satellites, spent rocket stages, debris from satellite collisions, or even natural meteoroids temporarily captured by Earth's gravity.

Loading next visibility...
Identifier
64052, 2025-103E
Orbit
SSO
Country
Flag of CNCN / PRC
Related business
Flag of CNBeijing University of Posts and Telecommunications (CN)
Manufacturer
Changsha Tianyi
Mission
Operational Amateur Technology
Bus & Motor
TY, Unknown motor
Mass
~50 kg wet, ~50 kg dry
Launch date (UTC)
2025-05-17 (1 year ago)
Launch vehicle
ZHUQUE-2E
Launch site
Jiuquan Satellite Launch Center, China (JSC)
Object type
Unknown
Shape & HBR
Box + 2 Pan, 0.5 m
Radar Cross Section
0.255 m², Medium (>0.1 m² and < 1m²)

Expand to show TLE details & history
Last TLE update: 5 hours ago

TLE from 5 hours ago
0 OBJECT E
1 64052U 25103E   26150.21802944  .00015070  00000-0  63370-3 0  9997
2 64052  97.3755 222.9737 0002154 198.5350 161.5809 15.23496768 57373
Epoch: 2026-05-30T05:13Z
TLE epoch observation values (Epoch: 2026-05-30T05:13:57.743Z)
Latitude
-0.00003°
Longitude
-103.25411°
Altitude
499.804 km
Speed
7.614 km/s
True Right ascension
14h 51m 53s
True Declination
0° 00' 00"
Sunlit
Object was in full shadow at epoch
Visualization orbit readout
Latitude
Unknown
Longitude
Unknown
Altitude
Unknown
Speed
Unknown
Apparent Right ascension
Unknown
Apparent Declination
Unknown
Sunlit
N/A
Visualization observer readout
Local Sidereal Time
19:45:44
Azimuth
Unknown
Elevation
Unknown
Doppler factor
Unknown
Orbital elements
Apogee altitude
493.743 km
Perigee altitude
490.783 km
Semi-major axis
6,870.4 km
Eccentricity
0.00022
Inclination
97.3755°
RAAN
222.9737°
Arg. of periapsis
198.535°
True anomaly
161.5887°
Mean anomaly
161.5809°
Eccentric anomaly
161.5848°
Mean motion
3.81127 °/min
Orbital period
94.46 mins
BSTAR
0.0006337
Loading maneuver chart data...
Computing Atmospheric mass density...
Loading historical data...
Loading historical data...
Loading historical data...
Loading historical data...
Loading historical data...
Loading historical data...
Loading historical data...

Documentation

Showing up to 5 results
|